Location: Saint-Usage
(47.1052°N, 5.2587°E)
Time: 11:38:36
(UTC+02:00)

Nauka - Pass Details

Date: 25 September 2021
Orbit: 417 x 423 km, 51.6° (Epoch: 19 October)

Event Time Altitude Azimuth Distance (km) Brightness Sun altitude
Rises 20:05:48 0° 269° (W) 2,359 ? -6.8°
Reaches altitude 10° 20:07:58 10° 277° (W) 1,497 ? -7.2°
Maximum altitude 20:11:10 41° 350° (N) 621 ? -7.8°
Drops below altitude 10° 20:14:24 10° 62° (ENE) 1,503 ? -8.3°
Enters shadow 20:14:48 - 64° (ENE) 1,664 ? -8.4°
